User: anonymous   Login
Location: Unspecified
(0.0000°N, 0.0000°E)
Time: 07:24:12
(UTC+00:00)
Language:

ATEX - Orbit

View from above orbital plane
View from above orbital plane
View from above satellite
View from above satellite

Ground track
Ground track

The orbit data is extracted from the following two-line orbital elements,

1 25615U 98055C   17285.21492222 0.00000090  00000-0  25845-4 0    03
2 25615  84.9851  84.9583 0007000 100.9071 259.0928 14.44973020    07
Epoch (UTC): 12 October 2017 05:09:29
Eccentricity: 0.0007000
inclination: 84.9851°
perigee height: 737 km
apogee height: 747 km
right ascension of ascending node: 84.9583°
argument of perigee: 100.9071°
revolutions per day: 14.44973020
mean anomaly at epoch: 259.0928°
orbit number at epoch: 0

The dashed part of the orbit path shows where the satellite is in the earth's shadow,  

DLR